This is the latest recevied weather packets stored in our database for station/object K7NDG. If no packets are shown the sender has not sent any weather packets the latest 10 day(s).
| Time | Temp. | Humidity | Pressure | Rain* | Wind** | Luminosity | Snow |
|---|---|---|---|---|---|---|---|
| 1777842481 | 28.89° C | 36% | 1011.4 hPa | 0 mm | - | 658 W/m² | - |
| 1777842180 | 28.89° C | 38% | 1011.1 hPa | 0 mm | - | 667 W/m² | - |
| 1777841874 | 28.89° C | 37% | 1011.2 hPa | 0 mm | - | 641 W/m² | - |
| 1777841571 | 28.89° C | 35% | 1011.3 hPa | 0 mm | - | 630 W/m² | - |
| 1777841268 | 28.89° C | 40% | 1011.4 hPa | 0 mm | - | 624 W/m² | - |
| 1777840965 | 28.89° C | 42% | 1011.5 hPa | 0 mm | - | 530 W/m² | - |
| 1777840663 | 28.33° C | 39% | 1011.5 hPa | 0 mm | - | 535 W/m² | - |
| 1777840360 | 27.78° C | 39% | 1011.6 hPa | 0 mm | - | 613 W/m² | - |
| 1777840057 | 28.33° C | 38% | 1011.6 hPa | 0 mm | - | 590 W/m² | - |
| 1777839755 | 28.33° C | 39% | 1011.8 hPa | 0 mm | - | 614 W/m² | - |
| 1777839452 | 28.33° C | 39% | 1012.1 hPa | 0 mm | - | 618 W/m² | - |
| 1777839150 | 27.78° C | 41% | 1012 hPa | 0 mm | - | 634 W/m² | - |
| 1777838846 | 27.78° C | 40% | 1012.1 hPa | 0 mm | - | 642 W/m² | - |
| 1777838542 | 27.78° C | 37% | 1012.2 hPa | 0 mm | - | 646 W/m² | - |
| 1777838239 | 27.78° C | 41% | 1012.3 hPa | 0 mm | - | 640 W/m² | - |
| 1777837936 | 27.22° C | 40% | 1012.3 hPa | 0 mm | - | 635 W/m² | - |
| 1777837634 | 27.22° C | 39% | 1012.3 hPa | 0 mm | - | 629 W/m² | - |
| 1777837330 | 27.22° C | 43% | 1012.3 hPa | 0 mm | - | 637 W/m² | - |
| 1777837026 | 27.22° C | 41% | 1012.4 hPa | 0 mm | - | 637 W/m² | - |
| 1777836722 | 27.22° C | 43% | 1012.4 hPa | 0 mm | - | 614 W/m² | - |
| 1777836417 | 26.67° C | 39% | 1012.4 hPa | 0 mm | - | 574 W/m² | - |
| 1777836113 | 26.67° C | 39% | 1012.5 hPa | 0 mm | - | 607 W/m² | - |
| 1777835810 | 26.11° C | 42% | 1012.7 hPa | 0 mm | - | 500 W/m² | - |
| 1777835507 | 26.11° C | 41% | 1012.7 hPa | 0 mm | - | 213 W/m² | - |
| 1777835204 | 26.11° C | 40% | 1012.7 hPa | 0 mm | - | 213 W/m² | - |
* Rain latest hour (hover to see other rain measurements)
** Current wind speed in m/s (hover to see current wind gust speed)